Location: Aalsum
(53.3404°N, 6.0062°E)
Time: 06:17:19
(UTC+00:00)

Cosmos 2228 - Pass Details

Date: 28 January 2023
Orbit: 585 x 612 km, 82.5° (Epoch: 24 March)

Event Time Altitude Azimuth Distance (km) Brightness Sun altitude
Rises 17:14:20 0° 355° (N) 2,840 6.3 -9.5°
Reaches altitude 10° 17:16:48 10° 7° (N) 1,930 5.4 -9.8°
Maximum altitude 17:20:31 29° 68° (ENE) 1,097 3.8 -10.3°
Drops below altitude 10° 17:24:19 10° 130° (SE) 1,948 5.3 -10.9°
Sets 17:26:38 0° 141° (SE) 2,804 6.2 -11.2°
